Regional Weather Roundup
Issued by NWS

Home | Current Version | Previous Version | Text Only | Print | Product List | Glossary Off
Versions: 1 2 3 4 5 6 7 8 9 10 11 12 13 14 15 16 17 18 19 20 21 22 23 24 25 26 27 28 29 30 31 32 33 34 35 36 37 38 39 40 41 42 43 44 45 46 47 48 49 50

000
ASUS43 KOAX 071002
RWRNE

WEATHER ROUNDUP FOR NEBRASKA
NATIONAL WEATHER SERVICE OMAHA NE
500 AM CDT TUE JUL 07 2015

NOTES: SATELLITE DATA IS BEING USED TO AUGMENT CLOUD COVER ABOVE
       12000 FEET.
       "FAIR" INDICATES FEW OR NO CLOUDS BELOW 12,000 FEET WITH NO
       SIGNIFICANT WEATHER AND/OR OBSTRUCTIONS TO VISIBILITY.

  * THESE STATIONS DO NOT REPORT WEATHER SUCH AS RAIN...SNOW OR FOG.

NEZ001>004-019>022-054>056-071100-
NEBRASKA PANHANDLE

CITY           SKY/WX    TMP DP  RH WIND       PRES   REMARKS
SCOTTSBLUFF    CLOUDY    61  56  83 E3        30.21S HAZE
ALLIANCE       CLEAR     53  51  93 E3        30.21F FOG
CHADRON        CLOUDY    58  55  90 SW3       30.18F
KIMBALL          N/A    N/A N/A N/A MISG        N/A
SIDNEY         CLOUDY    59  53  80 SE7       30.24S
$$

NEZ057>060-069>072-079>082-071100-
SOUTHWEST NEBRASKA

CITY           SKY/WX    TMP DP  RH WIND       PRES   REMARKS
NORTH PLATTE   CLEAR     53  51  93 CALM      30.20F
IMPERIAL       MOCLDY    57  52  83 E3        30.20F
LEXINGTON      CLEAR     53  51  94 NW3       30.18S FOG
MCCOOK         PTCLDY    57  54  89 N6        30.18F FOG
$$

NEZ005>010-023>029-035>040-094-071100-
NORTH CENTRAL NEBRASKA

CITY           SKY/WX    TMP DP  RH WIND       PRES   REMARKS
VALENTINE      CLEAR     52  51  97 W5        30.19F
AINSWORTH      CLEAR     55  54  95 CALM      30.19S
BROKEN BOW     CLEAR     52  50  93 N5        30.18F FOG
ORD            CLEAR     50  48  93 NW7       30.16F FOG
$$

NEZ041-046>049-061>064-073>077-083>087-071100-
SOUTH CENTRAL NEBRASKA

CITY           SKY/WX    TMP DP  RH WIND       PRES   REMARKS
GRAND ISLAND   CLEAR     56  53  90 N7        30.16S FOG
AURORA         CLEAR     56  56 100 N5        30.15S FOG
HASTINGS       CLEAR     57  54  89 N6        30.15S FOG
KEARNEY *      CLEAR     54  50  87 N8        30.16F
$$

NEZ011>018-030>034-042>045-071100-
NORTHEAST NEBRASKA

CITY           SKY/WX    TMP DP  RH WIND       PRES   REMARKS
NORFOLK        CLEAR     53  52  96 CALM      30.15S FOG
BLAIR          CLEAR     56  49  77 N7        30.11R
FREMONT        CLEAR     57  51  81 CALM      30.13R
TEKAMAH        CLEAR     54  51  90 N5        30.12R
$$

NEZ050>053-065>068-078-088>093-071100-
SOUTHEAST NEBRASKA

CITY           SKY/WX    TMP DP  RH WIND       PRES   REMARKS
LINCOLN        PTCLDY    56  52  86 N9        30.12R
OMAHA EPPLEY   CLEAR     56  52  86 N7        30.10R
FALLS CITY     PTCLDY    62  56  80 N9        30.05R
PLATTSMOUTH    CLEAR     58  48  70 N6        30.10R
$$

NEZ044-045-051>053-067-071100-
OMAHA AREA

CITY           SKY/WX    TMP DP  RH WIND       PRES   REMARKS
OMAHA EPPLEY   CLEAR     56  52  86 N7        30.10R
BLAIR          CLEAR     56  49  77 N7        30.11R
FREMONT        CLEAR     57  51  81 CALM      30.13R
MILLARD        CLEAR     60  51  71 NW5       30.10R
OFFUTT AFB     CLEAR     59  50  71 N9        30.09R
PLATTSMOUTH    CLEAR     58  48  70 N6        30.10R
$$



USA.gov is the U.S. government's official web portal to all federal, state and local government web resources and services.